Regional Weather Roundup
Issued by NWS

Home | Current Version | Previous Version | Text Only | Print | Product List | Glossary Off
Versions: 1 2 3 4 5 6 7 8 9 10 11 12 13 14 15 16 17 18 19 20 21 22 23 24 25 26 27 28 29 30 31 32 33 34 35 36 37 38 39 40 41 42 43 44 45 46 47 48 49 50

000
ASUS43 KBIS 270302
RWRND

NORTH DAKOTA REGIONAL WEATHER ROUNDUP
NATIONAL WEATHER SERVICE BISMARCK ND
1000 PM CDT MON JUN 26 2017

NOTE: "FAIR" INDICATES FEW OR NO CLOUDS BELOW 12,000 FEET WITH NO
SIGNIFICANT WEATHER AND/OR OBSTRUCTIONS TO VISIBILITY.


NDZ001>003-009>011-017-270400-
NORTHWEST NORTH DAKOTA

CITY           SKY/WX    TMP DP  RH WIND       PRES   REMARKS
WILLISTON      CLOUDY    75  40  28 SE10      29.86F
MINOT          CLEAR     66  42  41 E9        29.94F
MINOT AFB      CLEAR     59  45  59 SE9       29.92F
$$

NDZ018>021-031>035-040>046-270400-
SOUTHWEST NORTH DAKOTA

CITY           SKY/WX    TMP DP  RH WIND       PRES   REMARKS
BISMARCK       CLEAR     62  45  53 SE9       30.01F
DICKINSON      PTCLDY    65  35  33 SE13      29.93F
GARRISON         N/A     66  45  46 SE13      29.95F
HETTINGER ARPT CLEAR     68  40  35 SE15      30.00F
$$

NDZ004>008-012>016-024-026-027-054-270400-
NORTHEAST NORTH DAKOTA

CITY           SKY/WX    TMP DP  RH WIND       PRES   REMARKS
GRAND FORKS    PTCLDY    59  46  62 SW3       30.04S
GRND FRKS AFB  CLEAR     57  45  63 CALM      30.05F
DEVILS LAKE    CLEAR     60  49  66 SE7       30.04F
$$

NDZ022-023-025-028>030-036>039-047>053-270400-
SOUTHEAST NORTH DAKOTA

CITY           SKY/WX    TMP DP  RH WIND       PRES   REMARKS
FARGO          CLEAR     64  38  38 SW5       30.06F
JAMESTOWN      CLEAR     60  42  51 SE6       30.06F
$$





USA.gov is the U.S. government's official web portal to all federal, state and local government web resources and services.